{"data":{"norad_id":61546,"epoch":"2026-05-25T04:00:03.998880Z","epoch_age_seconds":63888,"freshness":"FRESH","line1":"1 61546U 24184Q   26145.16671295  .00033538  00000+0  10001-2 0  9991","line2":"2 61546  53.1601  18.8084 0001088  76.5227 320.3886 15.34375111  5809","mean_motion":15.34375111,"eccentricity":0.0001088,"inclination_deg":53.1601,"raan_deg":18.8084,"arg_perigee_deg":76.5227,"mean_anomaly_deg":320.3886,"bstar":0.0010001,"rev_number":580,"period_min":93.849280379783,"perigee_km":462.03292509342,"apogee_km":463.52150802694,"semimajor_km":6840.9142165602,"source":"CELESTRAK","updated_at":"2026-05-25T13:38:19.399971Z"}}